DW4707 Campi Bisenzio - Firenze IT current weather conditions

sailwx.info

Wind from 264

Air temperature 28.3° C
Dewpoint 17.8° C

Last reported at 2016-Jul-27 14:51 UTC.
Time now 2016-Jul-27 15:25 UTC

Location: N 43°50' E 011°08'.
View on Google Maps.

See reports from other nearby stations

  
Tides and Currents Weather Stations Pressure Air Temp Water Temp Dewpoint Dewpoint Depression Visibility Wind Speed Wind Dir Waves Ship Positions
date/time (UTC)wind fromknots sea level pressurealtimeterstation pressurevisibilityair tempwater tempwave heightnotes
2016-Jul-27 14:51 264 28.3
2016-Jul-27 14:41 006 28.9
2016-Jul-27 14:36 032 28.9
2016-Jul-27 14:21 202 29.4
2016-Jul-27 14:06 345 0 gusting 0 29.4
2016-Jul-27 14:01 090 29.4
2016-Jul-27 13:56 068 0 gusting 2 30.0
2016-Jul-27 13:51 022 2 gusting 2 32.8
2016-Jul-27 13:46 022 2 gusting 2 32.8
2016-Jul-27 13:41 338 33.3
2016-Jul-27 13:36 157 33.9
2016-Jul-27 13:31 270 33.9
2016-Jul-27 13:26 022 33.9
2016-Jul-27 13:16 022 34.4
2016-Jul-27 13:11 135 35.0
2016-Jul-27 13:06 071 35.0
2016-Jul-27 13:01 112 35.6
2016-Jul-27 12:46 180 0 gusting 2 35.6
2016-Jul-27 12:41 202 0 gusting 2 35.6
2016-Jul-27 12:36 185 35.6
2016-Jul-27 12:31 35.0
2016-Jul-27 12:26 248 0 gusting 0 35.0
2016-Jul-27 12:21 353 0 gusting 2 35.0
2016-Jul-27 12:16 180 0 gusting 0 35.6
2016-Jul-27 12:11 112 35.6
2016-Jul-27 12:06 35.6
2016-Jul-27 12:01 35.0
2016-Jul-27 11:56 292 35.0
2016-Jul-27 11:51 022 35.0
2016-Jul-27 11:46 202 35.0
2016-Jul-27 11:41 028 35.0
2016-Jul-27 11:36 070 34.4
2016-Jul-27 11:26 180 0 gusting 2 34.4
2016-Jul-27 11:16 35.0
2016-Jul-27 11:11 180 35.0
2016-Jul-27 11:06 342 35.0
2016-Jul-27 10:56 110 35.0
2016-Jul-27 10:51 006 0 gusting 0 34.4
2016-Jul-27 10:46 045 34.4
2016-Jul-27 10:36 020 33.9
2016-Jul-27 10:31 045 0 gusting 0 33.3
2016-Jul-27 10:26 045 33.3
2016-Jul-27 10:16 33.3
2016-Jul-27 10:11 022 33.3
2016-Jul-27 10:01 158 33.3
2016-Jul-27 09:51 138 32.8
2016-Jul-27 09:46 022 32.8
2016-Jul-27 09:41 353 32.8
2016-Jul-27 09:36 275 32.2
2016-Jul-27 09:31 202 32.2
2016-Jul-27 09:21 338 32.2
2016-Jul-27 09:16 022 31.7
2016-Jul-27 09:11 058 31.7
2016-Jul-27 09:01 045 30.6
2016-Jul-27 08:51 072 30.6
2016-Jul-27 08:41 035 30.6
2016-Jul-27 08:36 180 30.6
2016-Jul-27 08:31 112 30.0
2016-Jul-27 08:26 022 30.0
2016-Jul-27 08:21 117 30.0
2016-Jul-27 08:16 135 30.0
2016-Jul-27 08:11 064 29.4
2016-Jul-27 08:06 022 29.4
2016-Jul-27 08:01 194 28.9
2016-Jul-27 07:56 045 0 gusting 0 28.3
2016-Jul-27 07:51 022 28.9
2016-Jul-27 07:46 180 28.3
2016-Jul-27 07:41 180 28.3
2016-Jul-27 07:26 045 27.8
2016-Jul-27 07:21 248 27.8
2016-Jul-27 07:16 158 27.8
2016-Jul-27 07:11 061 27.2
2016-Jul-27 07:06 022 0 gusting 0 26.7
2016-Jul-27 07:01 068 27.2
2016-Jul-27 06:56 051 27.2
2016-Jul-27 06:51 023 27.2
2016-Jul-27 06:46 27.2
2016-Jul-27 06:41 186 27.2
2016-Jul-27 06:26 145 26.7
2016-Jul-27 06:21 069 26.1
2016-Jul-27 06:11 199 25.6
2016-Jul-27 06:06 225 26.1
2016-Jul-27 05:51 309 24.4
2016-Jul-27 05:46 180 23.9
2016-Jul-27 05:41 146 23.3
2016-Jul-27 05:36 028 23.3
2016-Jul-27 05:31 068 22.8
2016-Jul-27 05:26 022 22.8
2016-Jul-27 05:21 22.2
2016-Jul-27 05:16 225 21.7
2016-Jul-27 05:11 225 21.7
2016-Jul-27 05:06 199 21.7
2016-Jul-27 04:56 180 21.7
2016-Jul-27 04:51 202 21.7
2016-Jul-27 04:46 158 21.7
2016-Jul-27 04:41 180 21.7
2016-Jul-27 04:36 225 21.7
2016-Jul-27 04:31 158 21.7
2016-Jul-27 04:21 184 21.7
2016-Jul-27 04:16 202 21.7
2016-Jul-27 04:11 352 21.7
2016-Jul-27 04:01 180 21.7
2016-Jul-27 03:56 242 21.7
2016-Jul-27 03:46 202 21.7
2016-Jul-27 03:41 230 21.7
2016-Jul-27 03:36 202 21.7
2016-Jul-27 03:21 225 22.2
2016-Jul-27 03:16 022 22.2
2016-Jul-27 03:11 045 22.2
2016-Jul-27 03:06 180 22.2
2016-Jul-27 02:56 202 22.2
2016-Jul-27 02:46 180 22.2
2016-Jul-27 02:41 233 22.8
2016-Jul-27 02:36 180 22.8
2016-Jul-27 02:16 202 22.8
2016-Jul-27 02:11 140 22.8
2016-Jul-27 02:06 180 22.8
2016-Jul-27 02:01 180 22.8
2016-Jul-27 01:56 180 22.8
2016-Jul-27 01:41 180 22.8
2016-Jul-27 01:36 180 22.8
2016-Jul-27 01:31 202 23.3
2016-Jul-27 01:26 214 23.3
2016-Jul-27 01:16 135 23.3
2016-Jul-27 01:11 202 23.3
2016-Jul-27 01:06 045 23.3
2016-Jul-27 01:01 022 23.3
2016-Jul-27 00:56 180 23.3
2016-Jul-27 00:51 180 23.3
2016-Jul-27 00:46 180 23.3
2016-Jul-27 00:41 151 23.3
2016-Jul-27 00:36 225 23.9
2016-Jul-27 00:31 180 23.9
2016-Jul-27 00:21 180 23.3
2016-Jul-27 00:16 180 23.9
2016-Jul-27 00:06 180 23.9
2016-Jul-27 00:01 180 23.9
2016-Jul-26 23:51 135 23.9
2016-Jul-26 23:36 180 24.4
2016-Jul-26 23:21 180 24.4
2016-Jul-26 23:16 108 24.4
2016-Jul-26 23:01 180 25.0
2016-Jul-26 22:56 180 25.0
2016-Jul-26 22:46 180 25.0
2016-Jul-26 22:41 180 25.0
2016-Jul-26 22:36 180 25.0
2016-Jul-26 22:21 180 25.6
2016-Jul-26 22:11 198 25.6
2016-Jul-26 22:06 202 25.6
2016-Jul-26 22:01 202 25.6
2016-Jul-26 21:56 202 25.6
2016-Jul-26 21:51 202 25.6
2016-Jul-26 21:41 180 26.1
2016-Jul-26 21:36 180 26.1
2016-Jul-26 21:31 180 26.1
2016-Jul-26 21:26 180 26.1
2016-Jul-26 21:21 202 26.7
2016-Jul-26 21:11 202 26.7
2016-Jul-26 21:06 180 26.7
2016-Jul-26 21:01 180 26.7
2016-Jul-26 20:56 220 27.2
2016-Jul-26 20:51 225 27.2
2016-Jul-26 20:46 292 27.2
2016-Jul-26 20:36 248 27.2
2016-Jul-26 20:31 288 27.2
2016-Jul-26 20:16 338 27.8
2016-Jul-26 20:01 338 27.8
2016-Jul-26 19:56 338 28.3
2016-Jul-26 19:51 315 28.3
2016-Jul-26 19:46 315 28.3
2016-Jul-26 19:41 315 28.3
2016-Jul-26 19:36 338 28.3
2016-Jul-26 19:06 022 30.0
2016-Jul-26 19:01 005 30.0
2016-Jul-26 18:56 045 30.0
2016-Jul-26 18:51 30.0
2016-Jul-26 18:41 045 30.6
2016-Jul-26 18:31 018 30.6
2016-Jul-26 18:26 039 30.6
2016-Jul-26 18:16 062 31.1
2016-Jul-26 18:06 022 0 gusting 0 31.1
2016-Jul-26 18:01 026 31.1
2016-Jul-26 17:46 022 31.7
2016-Jul-26 17:41 068 0 gusting 1 31.7
2016-Jul-26 17:31 022 31.7
2016-Jul-26 17:26 045 31.7
2016-Jul-26 17:16 068 31.7
2016-Jul-26 17:11 022 31.7
2016-Jul-26 17:06 135 31.7
2016-Jul-26 17:01 31.7
2016-Jul-26 16:56 022 31.7
2016-Jul-26 16:51 31.7
2016-Jul-26 16:46 008 0 gusting 0 31.7
2016-Jul-26 16:41 345 31.7
2016-Jul-26 16:36 022 0 gusting 1 31.7
2016-Jul-26 16:26 040 31.7
2016-Jul-26 16:21 090 31.7
2016-Jul-26 16:16 011 31.7
2016-Jul-26 16:01 331 31.7
2016-Jul-26 15:56 090 31.7
2016-Jul-26 15:51 027 31.1
2016-Jul-26 15:41 31.1
2016-Jul-26 15:21 338 30.0
2016-Jul-26 15:16 338 30.0
2016-Jul-26 15:11 338 30.0
2016-Jul-26 15:06 30.0
2016-Jul-26 14:56 132 30.0
2016-Jul-26 14:51 090 29.4
2016-Jul-26 14:41 067 29.4
2016-Jul-26 14:16 006 29.4
2016-Jul-26 14:11 292 29.4
2016-Jul-26 14:06 112 29.4
2016-Jul-26 14:01 045 29.4
2016-Jul-26 13:51 158 29.4
2016-Jul-26 13:46 205 30.0
2016-Jul-26 13:41 180 30.0
2016-Jul-26 13:36 044 30.6
2016-Jul-26 13:26 111 31.1
2016-Jul-26 13:06 112 32.2
2016-Jul-26 13:01 195 32.8
2016-Jul-26 12:56 139 32.8
2016-Jul-26 12:51 155 33.3
2016-Jul-26 12:46 135 0 gusting 0 33.3
2016-Jul-26 12:41 248 34.4
2016-Jul-26 12:36 135 35.0
2016-Jul-26 12:26 35.0
2016-Jul-26 12:21 112 33.9
2016-Jul-26 12:16 060 2 gusting 2 34.4
2016-Jul-26 12:11 068 1 gusting 2 34.4
2016-Jul-26 12:06 022 34.4
2016-Jul-26 12:01 032 34.4
2016-Jul-26 11:56 135 0 gusting 1 34.4
2016-Jul-26 11:51 001 33.9
2016-Jul-26 11:46 037 33.9
2016-Jul-26 11:36 045 0 gusting 1 33.9
2016-Jul-26 11:31 011 34.4
2016-Jul-26 11:26 34.4
2016-Jul-26 11:21 112 34.4
2016-Jul-26 11:16 33.9
2016-Jul-26 11:11 045 0 gusting 0 34.4
2016-Jul-26 11:06 158 0 gusting 1 33.9
2016-Jul-26 11:01 068 1 gusting 1 33.9
2016-Jul-26 10:56 045 33.9
2016-Jul-26 10:46 048 33.3
2016-Jul-26 10:41 090 33.3
2016-Jul-26 10:36 338 32.8
2016-Jul-26 10:21 197 31.7
2016-Jul-26 10:16 013 31.7
2016-Jul-26 10:11 022 31.1
2016-Jul-26 10:06 045 31.1
2016-Jul-26 10:01 216 31.1
2016-Jul-26 09:51 180 30.6
2016-Jul-26 09:46 003 30.0
2016-Jul-26 09:41 022 30.0
2016-Jul-26 09:36 112 0 gusting 0 29.4
2016-Jul-26 09:31 022 29.4
2016-Jul-26 09:21 068 28.9
2016-Jul-26 09:01 070 28.3
2016-Jul-26 08:56 112 27.8
2016-Jul-26 08:31 025 26.7
2016-Jul-26 08:16 110 26.1
2016-Jul-26 08:11 022 26.1
2016-Jul-26 08:06 318 25.6
2016-Jul-26 07:56 158 25.6
2016-Jul-26 07:51 022 25.6
2016-Jul-26 07:46 341 25.6
2016-Jul-26 07:41 022 25.0
2016-Jul-26 07:36 179 25.0
2016-Jul-26 07:31 022 25.0
2016-Jul-26 07:26 135 24.4
2016-Jul-26 07:11 180 23.9
2016-Jul-26 07:06 338 23.3
2016-Jul-26 07:01 013 22.8
2016-Jul-26 06:56 135 22.8
2016-Jul-26 06:46 294 21.7
2016-Jul-26 06:41 180 21.7
2016-Jul-26 06:36 112 21.7
2016-Jul-26 06:31 21.7
2016-Jul-26 06:26 022 21.7
2016-Jul-26 06:21 176 21.7
2016-Jul-26 06:16 202 21.1
2016-Jul-26 06:11 112 21.1
2016-Jul-26 06:01 248 21.1
2016-Jul-26 05:56 270 21.1
2016-Jul-26 05:51 108 20.6
2016-Jul-26 05:41 315 20.6
2016-Jul-26 05:26 322 20.6
2016-Jul-26 05:16 216 20.6
2016-Jul-26 05:11 292 20.6
2016-Jul-26 05:01 022 20.6
2016-Jul-26 04:56 20.6
2016-Jul-26 04:51 047 20.6
2016-Jul-26 04:46 089 20.6
2016-Jul-26 04:31 155 20.0
2016-Jul-26 04:26 180 20.0
2016-Jul-26 04:21 180 20.0
2016-Jul-26 04:11 180 20.0
2016-Jul-26 04:06 025 20.0
2016-Jul-26 04:01 031 20.0
2016-Jul-26 03:56 158 20.0
2016-Jul-26 03:51 003 20.0
2016-Jul-26 03:46 034 20.0
2016-Jul-26 03:36 202 20.0
2016-Jul-26 03:31 217 20.0
2016-Jul-26 03:26 202 20.0
2016-Jul-26 03:21 158 20.0
2016-Jul-26 03:16 177 20.0
2016-Jul-26 03:06 202 20.6
2016-Jul-26 03:01 202 20.6
2016-Jul-26 02:56 202 20.6
2016-Jul-26 02:41 090 20.6
2016-Jul-26 02:36 158 20.6
2016-Jul-26 02:31 158 20.6
2016-Jul-26 02:16 158 20.6
2016-Jul-26 02:11 158 20.6
2016-Jul-26 02:06 158 20.6
2016-Jul-26 02:01 158 20.6
2016-Jul-26 01:56 158 20.6
2016-Jul-26 01:51 180 20.6
2016-Jul-26 01:41 022 20.6
2016-Jul-26 01:36 202 20.6
2016-Jul-26 01:31 202 20.6
2016-Jul-26 01:21 202 20.6
2016-Jul-26 01:16 202 20.6
2016-Jul-26 01:06 202 20.6
2016-Jul-26 01:01 202 20.6
2016-Jul-26 00:56 202 20.6
2016-Jul-26 00:46 180 20.6
2016-Jul-26 00:41 202 21.1
2016-Jul-26 00:36 254 21.1
2016-Jul-26 00:26 21.1
2016-Jul-26 00:21 007 21.1
2016-Jul-26 00:16 022 21.1
2016-Jul-26 00:01 197 21.1
2016-Jul-25 23:51 045 21.1
2016-Jul-25 23:46 142 21.1
2016-Jul-25 23:41 158 21.1
2016-Jul-25 23:36 158 21.1
2016-Jul-25 23:21 158 21.1
2016-Jul-25 23:16 158 21.1
2016-Jul-25 23:06 200 21.1
2016-Jul-25 22:56 202 21.1
2016-Jul-25 22:41 180 21.1
2016-Jul-25 22:36 176 21.1
2016-Jul-25 22:11 202 21.1
2016-Jul-25 22:06 180 21.1
2016-Jul-25 21:56 202 21.7
2016-Jul-25 21:51 225 21.7
2016-Jul-25 21:46 225 21.7
2016-Jul-25 21:36 180 21.7
2016-Jul-25 21:26 180 21.7
2016-Jul-25 21:21 180 21.7
2016-Jul-25 21:06 202 21.7
2016-Jul-25 21:01 187 21.7
2016-Jul-25 20:56 158 21.7
2016-Jul-25 20:51 158 21.7
2016-Jul-25 20:46 180 21.7
2016-Jul-25 20:36 026 22.2
2016-Jul-25 20:16 017 22.2
2016-Jul-25 20:11 022 22.2
2016-Jul-25 20:06 039 22.2
2016-Jul-25 20:01 158 22.2
2016-Jul-25 19:51 135 22.2
2016-Jul-25 19:46 158 22.2
2016-Jul-25 19:41 158 22.2
2016-Jul-25 19:36 068 22.2
2016-Jul-25 19:31 045 22.2
2016-Jul-25 19:26 152 22.2
2016-Jul-25 19:21 270 22.2
2016-Jul-25 19:16 270 22.2
2016-Jul-25 19:11 158 22.8
2016-Jul-25 19:01 158 22.8
2016-Jul-25 18:51 032 22.8
2016-Jul-25 18:46 053 22.8
2016-Jul-25 18:41 180 22.8
2016-Jul-25 18:36 173 22.8
2016-Jul-25 18:21 202 22.8
2016-Jul-25 18:16 163 22.8
2016-Jul-25 18:11 045 23.3
2016-Jul-25 17:56 045 23.3
2016-Jul-25 17:51 013 23.3
2016-Jul-25 17:46 350 23.3
2016-Jul-25 17:31 022 23.3
2016-Jul-25 17:26 23.3
2016-Jul-25 17:21 252 23.3
2016-Jul-25 17:16 068 23.3
2016-Jul-25 17:06 248 23.3
2016-Jul-25 17:01 347 23.9
2016-Jul-25 16:56 225 23.9
2016-Jul-25 16:51 158 24.4
2016-Jul-25 16:46 022 0 gusting 1 25.0
2016-Jul-25 16:41 25.0
2016-Jul-25 16:36 062 25.0
2016-Jul-25 16:31 045 25.6
2016-Jul-25 16:26 25.6
2016-Jul-25 16:21 019 25.6
2016-Jul-25 16:16 045 25.6
2016-Jul-25 16:11 068 26.7
2016-Jul-25 16:01 112 26.7
2016-Jul-25 15:56 112 26.7
2016-Jul-25 15:51 173 26.7
2016-Jul-25 15:46 135 26.7
2016-Jul-25 15:41 094 26.7
2016-Jul-25 15:36 124 26.7
2016-Jul-25 15:31 270 26.7
2016-Jul-25 15:21 008 26.7
2016-Jul-25 15:16 045 26.7
2016-Jul-25 15:11 338 26.7
2016-Jul-25 15:06 346 26.7
2016-Jul-25 15:01 090 26.7